Preview of NWS' New Version of Forecast
This preview is not operational and should not be used for support decisions.

Regional Weather Roundup (RWR)

Issued by Gray - Portland, ME (GYX)

                            
000
ASUS41 KGYX 191310
RWRGYX
WEATHER ROUNDUP FOR MAINE AND NEW HAMPSHIRE
NATIONAL WEATHER SERVICE GRAY ME
900 AM EDT FRI APR 19 2019

MEZ002-005-006-010-012-015-018-020-021-024-026-027-029-191400-
MAINE
  
CITY           SKY/WX    TMP DP  RH WIND       PRES   REMARKS
PORTLAND       PTSUNNY   53  50  89 S7        29.78S                  
SANFORD        CLOUDY    56  54  93 S6        29.78F                  
BAR HARBOR     FOG       48  48 100 SW14      29.80S VSB 1/2          
WISCASSET      CLOUDY    51  50  96 S5        29.78F FOG              
ROCKLAND       CLOUDY    50  50 100 SW12G18   29.79S FOG              
FRYEBURG       CLOUDY    53  50  89 S3        29.75F                  
LEWISTONAUBURN   N/A     50  50 100 S6        29.76F FOG              
AUGUSTA        FOG       49  49 100 VRB5      29.76S VSB 1/4          
WATERVILLE     FOG       49  48  97 S3        29.73F VSB 1/4          
BANGOR         CLOUDY    52  51  97 S8        29.75F FOG              
GREENVILLE       N/A     40  40 100 SE8       29.68F                  
MILLINOCKET    CLOUDY    45  43  93 VRB6      29.72F                  
HOULTON        CLOUDY    47  46  97 S10G21    29.68S                  
PRESQUE ISLE   LGT RAIN  44  43  96 S10       29.67S                  
FRENCHVILLE    LGT RAIN  42  38  85 S8        29.64R VSB<1/4          
CARIBOU        CLOUDY    43  41  93 S7        29.66R                  
$$

NHZ002-005-008-009-011-012-014-191400-
NEW HAMPSHIRE
  
CITY           SKY/WX    TMP DP  RH WIND       PRES   REMARKS
ROCHESTER      CLOUDY    53  53 100 CALM      29.77F                  
NASHUA         CLOUDY    67  61  81 VRB6      29.77F                  
MANCHESTER     CLOUDY    60  56  86 S7        29.76F                  
CONCORD          N/A     58  55  90 MISG      29.76F                  
LACONIA        CLOUDY    45  45 100 CALM      29.77F                  
PLYMOUTH       CLOUDY    42  42  98 CALM      29.76F                  
BERLIN         FAIR      45  42  89 S5        29.70F                  
WHITEFIELD     FAIR      54  48  80 NE3       29.71F                  
JAFFREY        CLOUDY    60  55  83 S12G26    29.78F                  
KEENE          CLOUDY    61  57  87 S9        29.77F                  
LEBANON        CLOUDY    59  53  80 SW12      29.71F HAZE             
MT WASHINGTON  FOG       43  43 100 W37         N/A  VSB 0            
$$

VTZ005-007-008-191400-
VERMONT
  
CITY           SKY/WX    TMP DP  RH WIND       PRES   REMARKS
ST JOHNSBURY     N/A     54  51  90 MISG      29.70F                  
MONTPELIER     FAIR      54  48  80 S7        29.74S                  
BURLINGTON     PTSUNNY   63  53  70 S21G28    29.63F                  
$$

MAZ007-012-024-CTZ003-RIZ002-NYZ038-NYZ072-191400-
SOUTHERN NEW ENGLAND AND NY
  
CITY           SKY/WX    TMP DP  RH WIND       PRES   REMARKS
BOSTON         CLOUDY    70  57  63 SW22G35   29.80F                  
WORCESTER      CLOUDY    63  57  81 SW22G36   29.81F                  
NANTUCKET      PTSUNNY   53  50  89 S18       29.93F FOG              
PROVIDENCE     PTSUNNY   66  57  72 SW25G39   29.86F                  
HARTFORD       PTSUNNY   64  57  78 S13       29.80F                  
ALBANY         PTSUNNY   66  56  70 S20G30    29.69F                  
NEW YORK CITY  PTSUNNY   62  55  77 S13       29.81S                  
$$

ANZ081-ANZ082-ANZ150-NHZ014-MEZ023>029-191400-
COASTAL MARINE OBSERVATIONS
  
STATION/POSITION TIME  TEMP    WIND        PRES    WAVE
                       AIR SEA DIR/SP/G            HT/PER
                 (UTC) (F)     (DEG/KT/KT) (MB)    (FT/S)
ISLE OF SHOALS   1200   53     170/ 14/ 15 1008.5R
$$

.............KEY..............
   WCI - WIND CHILL
   TC  - TEMPERATURE IN CELSIUS
   VSB - VISIBILITY IN MILES
   HX  - HEAT INDEX
   FAIR- INDICATES FEW OR NO CLOUDS BELOW 12,000 FT, WITH NO 
         SIGNIFICANT WEATHER AND/OR OBSTRUCTIONS TO VISIBILITY.